This is the latest recevied weather packets stored in our database for station/object KD7CTY. If no packets are shown the sender has not sent any weather packets the latest 1 day(s).
| Time | Temp. | Humidity | Pressure | Rain* | Wind** | Luminosity | Snow |
|---|---|---|---|---|---|---|---|
| 1778079006 | 10.56° C | 97% | 1018.5 hPa | 0 mm | - | 69 W/m² | - |
| 1778078400 | 10.56° C | 97% | 1017.9 hPa | 0 mm | - | 92 W/m² | - |
| 1778078097 | 10.56° C | 98% | 1018.4 hPa | 0 mm | - | 86 W/m² | - |
| 1778077493 | 10.56° C | 98% | 1018.5 hPa | 0 mm | - | 63 W/m² | - |
| 1778075980 | 10.56° C | 99% | 1018.2 hPa | 0 mm | - | 27 W/m² | - |
| 1778075373 | 10.56° C | 99% | 1018.3 hPa | 0 mm | - | 21 W/m² | - |
| 1778073555 | 10° C | 99% | 1018 hPa | 0 mm | - | 8 W/m² | - |
| 1778073251 | 10° C | 99% | 1018 hPa | 0 mm | - | 4 W/m² | - |
| 1778072041 | 10° C | 99% | 1017.8 hPa | 0 mm | - | 0 W/m² | - |
| 1778071739 | 10° C | 99% | 1017.3 hPa | 0 mm | - | 0 W/m² | - |
| 1778070225 | 10° C | 99% | 1017.6 hPa | 0 mm | - | 0 W/m² | - |
| 1778067201 | 10.56° C | 98% | 1017.5 hPa | 0 mm | - | 0 W/m² | - |
| 1778066595 | 10.56° C | 98% | 1017.2 hPa | 0 mm | - | 0 W/m² | - |
| 1778065081 | 10.56° C | 98% | 1017.3 hPa | 0 mm | - | 0 W/m² | - |
| 1778064778 | 10.56° C | 98% | 1017.3 hPa | 0 mm | - | 0 W/m² | - |
| 1778064173 | 10.56° C | 98% | 1017.1 hPa | 0 mm | - | 0 W/m² | - |
| 1778063265 | 10.56° C | 98% | 1017.1 hPa | 0 mm | - | 0 W/m² | - |
| 1778062963 | 10.56° C | 98% | 1017 hPa | 0 mm | - | 0 W/m² | - |
| 1778062356 | 10.56° C | 98% | 1016.9 hPa | 0 mm | - | 0 W/m² | - |
| 1778062054 | 10.56° C | 98% | 1017 hPa | 0 mm | - | 0 W/m² | - |
| 1778061752 | 10.56° C | 98% | 1016.9 hPa | 0 mm | - | 0 W/m² | - |
| 1778060542 | 10.56° C | 99% | 1016.6 hPa | 0 mm | - | 0 W/m² | - |
| 1778059937 | 10.56° C | 99% | 1016.6 hPa | 0 mm | - | 0 W/m² | - |
| 1778059635 | 10° C | 99% | 1016.5 hPa | 0 mm | - | 0 W/m² | - |
| 1778059030 | 10° C | 99% | 1016.6 hPa | 0 mm | - | 0 W/m² | - |
* Rain latest hour (hover to see other rain measurements)
** Current wind speed in m/s (hover to see current wind gust speed)